カタログに戻る

DELTA 4 R/B

運用中HEO
NORAD 27876·ROCKET BODY·🇺🇸 United States

打ち上げ Aug 29, 2003 から Cape Canaveral Space Force Station

Loading…

次のパス (今後24時間)

TLE

最新Source: Space-Track

元期: Sep 14, 2026, 11:05 UTC

1 27876U 03040B   26257.46228686  .00007519  00000-0  86282-3 0  9992
2 27876  25.6435 177.8491 4991365  83.3052 328.8420  5.66166025138064

AllMySatでDELTA 4 R/Bをリアルタイム追跡

Download on the App Store